This is the latest recevied weather packets stored in our database for station/object WA7SB-7. If no packets are shown the sender has not sent any weather packets the latest 10 day(s).
| Time | Temp. | Humidity | Pressure | Rain* | Wind** | Luminosity | Snow |
|---|---|---|---|---|---|---|---|
| 1777491627 | 15.56° C | 71% | 1023.7 hPa | 0 mm | - | - | - |
| 1777491567 | 15.56° C | 70% | 1023.7 hPa | 0 mm | - | - | - |
| 1777491321 | 15.56° C | 73% | 1023.7 hPa | 0 mm | - | - | - |
| 1777491264 | 15.56° C | 72% | 1023.8 hPa | 0 mm | - | - | - |
| 1777491021 | 15° C | 73% | 1023.7 hPa | 0 mm | - | - | - |
| 1777490965 | 15° C | 72% | 1023.7 hPa | 0 mm | - | - | - |
| 1777490716 | 15° C | 72% | 1023.7 hPa | 0 mm | - | - | - |
| 1777490675 | 15° C | 72% | 1023.7 hPa | 0 mm | - | - | - |
| 1777490431 | 15° C | 73% | 1023.8 hPa | 0 mm | - | - | - |
| 1777490371 | 15° C | 72% | 1023.7 hPa | 0 mm | - | - | - |
| 1777490129 | 14.44° C | 73% | 1023.8 hPa | 0 mm | - | - | - |
| 1777490069 | 14.44° C | 72% | 1023.8 hPa | 0 mm | - | - | - |
| 1777489829 | 14.44° C | 73% | 1023.9 hPa | 0 mm | - | - | - |
| 1777489771 | 14.44° C | 73% | 1024 hPa | 0 mm | - | - | - |
| 1777489531 | 15° C | 75% | 1023.9 hPa | 0 mm | - | - | - |
| 1777489469 | 14.44° C | 73% | 1023.9 hPa | 0 mm | - | - | - |
| 1777489233 | 14.44° C | 73% | 1024 hPa | 0 mm | - | - | - |
| 1777489155 | 14.44° C | 73% | 1024.1 hPa | 0 mm | - | - | - |
| 1777488914 | 14.44° C | 74% | 1024.1 hPa | 0 mm | - | - | - |
| 1777488874 | 14.44° C | 73% | 1024.1 hPa | 0 mm | - | - | - |
| 1777488631 | 14.44° C | 73% | 1024.3 hPa | 0 mm | - | - | - |
| 1777488572 | 14.44° C | 73% | 1024.2 hPa | 0 mm | - | - | - |
| 1777488327 | 13.89° C | 72% | 1024.2 hPa | 0 mm | - | - | - |
| 1777488252 | 13.89° C | 73% | 1024.2 hPa | 0 mm | - | - | - |
| 1777488031 | 13.89° C | 72% | 1024.3 hPa | 0 mm | - | - | - |
* Rain latest hour (hover to see other rain measurements)
** Current wind speed in m/s (hover to see current wind gust speed)